^^
Your Local Weather - Clay, NY Station Historical Data
Daily Summary for October 14, 2017 Units:  English    Metric   Both
« Previous Day
Next Day »
Daily Weekly Monthly Yearly Custom
  High: Low: Average:
Temperature: 70.1 °F 56.7 °F 62.4 °F
Dew Point: 59.6 °F 53.0 °F 56.2 °F
Humidity: 93% 66% 80%
Wind Speed: 4.0mph 0.0mph 1.1mph
Wind Gust: 8.0mph - -
Wind- - SSE
Pressure: 30.21 in 30.04 in -
Precipitation: 0.00 in    
Historical Graphs
 
 
Tabular Data for October 14, 2017
Time Temperature Dew Point Pressure Wind Wind Speed Wind Gust Humidity Rainfall Rate (Hourly) solar
00:04 60.6 °F 53.0 °F 30.20 in SSW 4.0 mph 5.0 mph 76% 0.00 in 0 W/m2
00:10 60.6 °F 53.0 °F 30.20 in SW 4.0 mph 6.0 mph 76% 0.00 in 0 W/m2
00:16 60.4 °F 53.2 °F 30.20 in SSE 3.0 mph 6.0 mph 77% 0.00 in 0 W/m2
00:22 60.2 °F 53.0 °F 30.19 in South 3.0 mph 6.0 mph 77% 0.00 in 0 W/m2
00:28 60.2 °F 53.0 °F 30.19 in SSE 4.0 mph 6.0 mph 77% 0.00 in 0 W/m2
00:36 60.2 °F 53.0 °F 30.19 in SSW 3.0 mph 4.0 mph 77% 0.00 in 0 W/m2
00:42 60.1 °F 53.2 °F 30.19 in SSE 2.0 mph 3.0 mph 78% 0.00 in 0 W/m2
00:48 60.0 °F 53.1 °F 30.19 in SSW 2.0 mph 3.0 mph 78% 0.00 in 0 W/m2
00:54 60.0 °F 53.1 °F 30.19 in SW 2.0 mph 3.0 mph 78% 0.00 in 0 W/m2
01:00 60.1 °F 53.2 °F 30.19 in SSE 2.0 mph 3.0 mph 78% 0.00 in 0 W/m2
01:06 60.2 °F 53.3 °F 30.19 in South 3.0 mph 4.0 mph 78% 0.00 in 0 W/m2
01:12 60.2 °F 53.3 °F 30.19 in South 3.0 mph 3.0 mph 78% 0.00 in 0 W/m2
01:18 60.1 °F 53.2 °F 30.19 in South 2.0 mph 4.0 mph 78% 0.00 in 0 W/m2
01:24 60.2 °F 53.3 °F 30.18 in SSE 3.0 mph 4.0 mph 78% 0.00 in 0 W/m2
01:30 60.2 °F 53.3 °F 30.19 in SSW 4.0 mph 7.0 mph 78% 0.00 in 0 W/m2
01:36 60.2 °F 53.3 °F 30.18 in SSW 3.0 mph 7.0 mph 78% 0.00 in 0 W/m2
01:42 60.3 °F 53.4 °F 30.18 in South 4.0 mph 5.0 mph 78% 0.00 in 0 W/m2
01:48 60.3 °F 53.4 °F 30.18 in WSW 3.0 mph 5.0 mph 78% 0.00 in 0 W/m2
01:50 60.4 °F 53.5 °F 30.18 in SSW 3.0 mph 3.0 mph 78% 0.00 in 0 W/m2
01:56 60.4 °F 53.5 °F 30.18 in SSW 3.0 mph 4.0 mph 78% 0.00 in 0 W/m2
02:02 60.5 °F 53.6 °F 30.18 in SSW 4.0 mph 7.0 mph 78% 0.00 in 0 W/m2
02:08 60.6 °F 53.7 °F 30.18 in SW 4.0 mph 7.0 mph 78% 0.00 in 0 W/m2
02:14 60.6 °F 53.7 °F 30.18 in SW 3.0 mph 4.0 mph 78% 0.00 in 0 W/m2
02:20 60.6 °F 53.7 °F 30.18 in SW 2.0 mph 2.0 mph 78% 0.00 in 0 W/m2
02:26 60.6 °F 53.7 °F 30.18 in SSW 2.0 mph 4.0 mph 78% 0.00 in 0 W/m2
02:32 60.6 °F 53.7 °F 30.17 in SW 3.0 mph 4.0 mph 78% 0.00 in 0 W/m2
02:38 60.6 °F 53.7 °F 30.17 in SSW 3.0 mph 5.0 mph 78% 0.00 in 0 W/m2
02:44 60.6 °F 53.7 °F 30.17 in SSW 2.0 mph 6.0 mph 78% 0.00 in 0 W/m2
02:50 60.8 °F 53.9 °F 30.17 in SSW 4.0 mph 5.0 mph 78% 0.00 in 0 W/m2
02:56 60.8 °F 53.9 °F 30.17 in SSW 4.0 mph 5.0 mph 78% 0.00 in 0 W/m2
03:02 60.8 °F 53.9 °F 30.17 in South 4.0 mph 4.0 mph 78% 0.00 in 0 W/m2
03:08 60.7 °F 53.8 °F 30.17 in South 3.0 mph 4.0 mph 78% 0.00 in 0 W/m2
03:14 60.7 °F 54.1 °F 30.17 in SSW 2.0 mph 4.0 mph 79% 0.00 in 0 W/m2
03:20 60.6 °F 53.7 °F 30.17 in SSW 2.0 mph 2.0 mph 78% 0.00 in 0 W/m2
03:26 60.6 °F 54.0 °F 30.17 in South 2.0 mph 2.0 mph 79% 0.00 in 0 W/m2
03:32 60.6 °F 54.0 °F 30.17 in SW 2.0 mph 5.0 mph 79% 0.00 in 0 W/m2
03:38 60.6 °F 54.0 °F 30.17 in South 3.0 mph 5.0 mph 79% 0.00 in 0 W/m2
03:44 60.5 °F 54.0 °F 30.17 in South 1.0 mph 2.0 mph 79% 0.00 in 0 W/m2
03:50 60.3 °F 54.1 °F 30.17 in South 1.0 mph 3.0 mph 80% 0.00 in 0 W/m2
03:56 60.4 °F 54.2 °F 30.17 in SW 1.0 mph 3.0 mph 80% 0.00 in 0 W/m2
04:02 60.5 °F 54.0 °F 30.17 in SSW 2.0 mph 4.0 mph 79% 0.00 in 0 W/m2
04:08 60.4 °F 53.9 °F 30.17 in South 2.0 mph 5.0 mph 79% 0.00 in 0 W/m2
04:14 60.3 °F 54.1 °F 30.17 in South 2.0 mph 4.0 mph 80% 0.00 in 0 W/m2
04:20 60.3 °F 54.1 °F 30.17 in South 1.0 mph 1.0 mph 80% 0.00 in 0 W/m2
04:26 60.2 °F 54.0 °F 30.17 in Calm   3.0 mph 80% 0.00 in 0 W/m2
04:32 60.2 °F 54.0 °F 30.18 in South 1.0 mph 1.0 mph 80% 0.00 in 0 W/m2
04:38 60.1 °F 53.9 °F 30.18 in South 1.0 mph 2.0 mph 80% 0.00 in 0 W/m2
04:44 60.1 °F 53.9 °F 30.18 in South 1.0 mph 1.0 mph 80% 0.00 in 0 W/m2
04:50 60.1 °F 54.2 °F 30.17 in Calm     81% 0.00 in 0 W/m2
04:56 60.0 °F 54.2 °F 30.17 in Calm   1.0 mph 81% 0.00 in 0 W/m2
05:02 60.1 °F 54.2 °F 30.17 in South 1.0 mph 1.0 mph 81% 0.00 in 0 W/m2
05:08 60.2 °F 54.0 °F 30.17 in South 1.0 mph 2.0 mph 80% 0.00 in 0 W/m2
05:14 60.2 °F 54.0 °F 30.17 in South 1.0 mph 3.0 mph 80% 0.00 in 0 W/m2
05:20 60.2 °F 54.0 °F 30.17 in South 1.0 mph 2.0 mph 80% 0.00 in 0 W/m2
05:26 60.2 °F 54.0 °F 30.17 in SSW 1.0 mph 2.0 mph 80% 0.00 in 0 W/m2
05:32 60.3 °F 54.1 °F 30.17 in SSW 1.0 mph 1.0 mph 80% 0.00 in 0 W/m2
05:38 60.3 °F 54.4 °F 30.17 in SSW 1.0 mph 3.0 mph 81% 0.00 in 0 W/m2
05:44 60.3 °F 54.1 °F 30.17 in SSW 1.0 mph 2.0 mph 80% 0.00 in 0 W/m2
05:50 60.2 °F 54.3 °F 30.17 in SSW 1.0 mph 1.0 mph 81% 0.00 in 0 W/m2
05:56 60.2 °F 54.3 °F 30.17 in SSW 1.0 mph 1.0 mph 81% 0.00 in 0 W/m2
06:02 60.1 °F 54.2 °F 30.17 in Calm     81% 0.00 in 0 W/m2
06:08 59.9 °F 54.4 °F 30.17 in Calm     82% 0.00 in 0 W/m2
06:14 59.5 °F 54.3 °F 30.17 in Calm     83% 0.00 in 0 W/m2
06:20 59.2 °F 54.4 °F 30.17 in Calm     84% 0.00 in 0 W/m2
06:26 58.9 °F 54.1 °F 30.17 in Calm     84% 0.00 in 0 W/m2
06:32 58.4 °F 53.9 °F 30.17 in Calm     85% 0.00 in 0 W/m2
06:38 58.0 °F 54.2 °F 30.17 in Calm     87% 0.00 in 0 W/m2
06:44 57.8 °F 54.0 °F 30.17 in Calm     87% 0.00 in 0 W/m2
06:50 57.6 °F 53.8 °F 30.17 in Calm     87% 0.00 in 0 W/m2
06:56 57.4 °F 53.9 °F 30.17 in Calm     88% 0.00 in 0 W/m2
07:02 57.3 °F 53.8 °F 30.18 in Calm     88% 0.00 in 0 W/m2
07:08 57.2 °F 54.0 °F 30.18 in Calm     89% 0.00 in 0 W/m2
07:14 57.1 °F 53.9 °F 30.18 in Calm     89% 0.00 in 0 W/m2
07:20 57.1 °F 53.9 °F 30.18 in Calm     89% 0.00 in 0 W/m2
07:26 57.0 °F 53.8 °F 30.18 in Calm     89% 0.00 in 5 W/m2
07:32 56.7 °F 53.8 °F 30.18 in Calm     90% 0.00 in 11 W/m2
07:38 56.7 °F 53.8 °F 30.18 in Calm     90% 0.00 in 21 W/m2
07:44 56.7 °F 53.8 °F 30.18 in Calm     90% 0.00 in 21 W/m2
07:50 56.7 °F 53.8 °F 30.19 in Calm     90% 0.00 in 25 W/m2
07:56 57.0 °F 54.4 °F 30.19 in Calm     91% 0.00 in 26 W/m2
08:02 57.2 °F 54.6 °F 30.19 in Calm     91% 0.00 in 26 W/m2
08:08 57.4 °F 54.8 °F 30.19 in Calm     91% 0.00 in 28 W/m2
08:14 57.6 °F 55.0 °F 30.19 in Calm     91% 0.00 in 35 W/m2
08:20 57.9 °F 55.3 °F 30.19 in Calm     91% 0.00 in 49 W/m2
08:26 58.1 °F 55.5 °F 30.20 in Calm     91% 0.00 in 62 W/m2
08:32 58.4 °F 55.8 °F 30.20 in Calm     91% 0.00 in 51 W/m2
08:38 58.7 °F 56.1 °F 30.20 in Calm     91% 0.00 in 79 W/m2
08:44 59.2 °F 56.3 °F 30.20 in Calm   2.0 mph 90% 0.00 in 120 W/m2
08:50 59.7 °F 56.5 °F 30.20 in SSW 1.0 mph 1.0 mph 89% 0.00 in 105 W/m2
08:56 60.2 °F 56.3 °F 30.20 in Calm   1.0 mph 87% 0.00 in 105 W/m2
09:02 60.6 °F 56.1 °F 30.20 in Calm   1.0 mph 85% 0.00 in 83 W/m2
09:08 60.9 °F 56.0 °F 30.20 in Calm   1.0 mph 84% 0.00 in 63 W/m2
09:14 61.2 °F 56.0 °F 30.20 in Calm   2.0 mph 83% 0.00 in 58 W/m2
09:20 61.3 °F 55.8 °F 30.20 in SSW 1.0 mph 1.0 mph 82% 0.00 in 65 W/m2
09:26 61.4 °F 55.9 °F 30.20 in SSW 1.0 mph 2.0 mph 82% 0.00 in 65 W/m2
09:32 61.5 °F 56.0 °F 30.21 in SSW 1.0 mph 1.0 mph 82% 0.00 in 56 W/m2
09:38 61.5 °F 56.0 °F 30.21 in Calm   1.0 mph 82% 0.00 in 58 W/m2
09:44 61.5 °F 56.0 °F 30.21 in Calm     82% 0.00 in 62 W/m2
09:50 61.5 °F 56.3 °F 30.21 in Calm     83% 0.00 in 67 W/m2
09:56 61.5 °F 56.0 °F 30.21 in SSW 1.0 mph 2.0 mph 82% 0.00 in 76 W/m2
10:02 61.6 °F 56.0 °F 30.20 in SSW 1.0 mph 1.0 mph 82% 0.00 in 84 W/m2
10:08 61.7 °F 56.1 °F 30.20 in Calm   1.0 mph 82% 0.00 in 98 W/m2
10:14 61.8 °F 55.9 °F 30.20 in SSW 1.0 mph 3.0 mph 81% 0.00 in 107 W/m2
10:20 62.1 °F 56.5 °F 30.20 in SSW 1.0 mph 2.0 mph 82% 0.00 in 120 W/m2
10:26 62.2 °F 56.3 °F 30.20 in SSW 1.0 mph 3.0 mph 81% 0.00 in 130 W/m2
10:32 62.6 °F 56.3 °F 30.20 in SSW 2.0 mph 2.0 mph 80% 0.00 in 227 W/m2
10:38 63.4 °F 56.8 °F 30.20 in SW 2.0 mph 3.0 mph 79% 0.00 in 311 W/m2
10:44 64.4 °F 57.0 °F 30.20 in WSW 3.0 mph 5.0 mph 77% 0.00 in 461 W/m2
10:50 65.0 °F 57.6 °F 30.20 in WSW 3.0 mph 4.0 mph 77% 0.00 in 473 W/m2
10:56 65.0 °F 56.9 °F 30.20 in SW 4.0 mph 6.0 mph 75% 0.00 in 418 W/m2
11:02 65.2 °F 57.4 °F 30.20 in SSW 4.0 mph 5.0 mph 76% 0.00 in 497 W/m2
11:08 65.2 °F 57.1 °F 30.20 in WSW 4.0 mph 8.0 mph 75% 0.00 in 360 W/m2
11:14 65.2 °F 57.4 °F 30.20 in WSW 3.0 mph 6.0 mph 76% 0.00 in 202 W/m2
11:20 65.1 °F 57.0 °F 30.19 in South 2.0 mph 2.0 mph 75% 0.00 in 271 W/m2
11:26 66.5 °F 58.0 °F 30.18 in SSW 2.0 mph 5.0 mph 74% 0.00 in 577 W/m2
11:32 66.6 °F 57.7 °F 30.18 in SSW 3.0 mph 3.0 mph 73% 0.00 in 422 W/m2
11:40 66.0 °F 57.5 °F 30.18 in South 3.0 mph 4.0 mph 74% 0.00 in 251 W/m2
11:46 65.8 °F 57.3 °F 30.18 in SSW 2.0 mph 6.0 mph 74% 0.00 in 216 W/m2
11:52 65.6 °F 57.8 °F 30.18 in SSW 2.0 mph 2.0 mph 76% 0.00 in 213 W/m2
11:58 65.6 °F 57.5 °F 30.18 in South 1.0 mph 2.0 mph 75% 0.00 in 213 W/m2
12:04 65.5 °F 57.0 °F 30.18 in SW 2.0 mph 2.0 mph 74% 0.00 in 185 W/m2
12:10 65.4 °F 57.3 °F 30.18 in SW 2.0 mph 2.0 mph 75% 0.00 in 160 W/m2
12:16 65.5 °F 57.4 °F 30.18 in SW 1.0 mph 2.0 mph 75% 0.00 in 209 W/m2
12:22 65.5 °F 57.0 °F 30.17 in SW 1.0 mph 1.0 mph 74% 0.00 in 257 W/m2
12:28 65.8 °F 57.3 °F 30.17 in SW 1.0 mph 2.0 mph 74% 0.00 in 244 W/m2
12:34 66.5 °F 58.3 °F 30.17 in SW 1.0 mph 1.0 mph 75% 0.00 in 338 W/m2
12:40 66.6 °F 57.3 °F 30.17 in SW 1.0 mph 3.0 mph 72% 0.00 in 311 W/m2
12:46 66.3 °F 57.4 °F 30.17 in SSW 2.0 mph 3.0 mph 73% 0.00 in 257 W/m2
12:52 66.5 °F 57.2 °F 30.17 in SSW 1.0 mph 1.0 mph 72% 0.00 in 221 W/m2
12:58 66.4 °F 57.5 °F 30.16 in Calm   1.0 mph 73% 0.00 in 162 W/m2
13:04 66.4 °F 57.5 °F 30.16 in Calm   1.0 mph 73% 0.00 in 165 W/m2
13:10 66.6 °F 58.4 °F 30.16 in SSW 1.0 mph 1.0 mph 75% 0.00 in 223 W/m2
13:16 66.7 °F 57.4 °F 30.15 in WSW 1.0 mph 3.0 mph 72% 0.00 in 146 W/m2
13:22 66.6 °F 57.7 °F 30.15 in WSW 1.0 mph 2.0 mph 73% 0.00 in 144 W/m2
13:28 66.8 °F 58.2 °F 30.15 in Calm   2.0 mph 74% 0.00 in 144 W/m2
13:34 66.7 °F 57.8 °F 30.15 in SW 1.0 mph 1.0 mph 73% 0.00 in 114 W/m2
13:40 66.5 °F 58.0 °F 30.14 in SW 1.0 mph 2.0 mph 74% 0.00 in 202 W/m2
13:46 66.8 °F 58.2 °F 30.14 in SW 1.0 mph 2.0 mph 74% 0.00 in 257 W/m2
13:52 67.2 °F 59.0 °F 30.14 in SW 1.0 mph 1.0 mph 75% 0.00 in 276 W/m2
13:58 67.6 °F 57.5 °F 30.14 in SW 1.0 mph 1.0 mph 70% 0.00 in 248 W/m2
14:04 67.5 °F 58.2 °F 30.14 in SE 1.0 mph 1.0 mph 72% 0.00 in 237 W/m2
14:10 67.6 °F 58.2 °F 30.14 in SE 1.0 mph 2.0 mph 72% 0.00 in 227 W/m2
14:16 67.3 °F 58.0 °F 30.13 in SE 2.0 mph 3.0 mph 72% 0.00 in 253 W/m2
14:22 68.2 °F 59.6 °F 30.13 in SE 1.0 mph 1.0 mph 74% 0.00 in 329 W/m2
14:28 68.6 °F 59.6 °F 30.13 in NNE 1.0 mph 2.0 mph 73% 0.00 in 276 W/m2
14:34 68.6 °F 58.0 °F 30.12 in NNE 1.0 mph 1.0 mph 69% 0.00 in 330 W/m2
14:40 69.9 °F 59.3 °F 30.12 in Calm     69% 0.00 in 628 W/m2
14:46 70.0 °F 58.5 °F 30.12 in WNW 1.0 mph 4.0 mph 67% 0.00 in 547 W/m2
14:52 69.7 °F 58.7 °F 30.12 in NW 1.0 mph 2.0 mph 68% 0.00 in 216 W/m2
14:58 69.0 °F 58.8 °F 30.11 in North 2.0 mph 3.0 mph 70% 0.00 in 578 W/m2
15:04 68.9 °F 58.3 °F 30.11 in North 2.0 mph 3.0 mph 69% 0.00 in 199 W/m2
15:10 68.8 °F 58.6 °F 30.11 in Calm     70% 0.00 in 230 W/m2
15:16 69.5 °F 58.5 °F 30.10 in Calm   3.0 mph 68% 0.00 in 200 W/m2
15:22 69.0 °F 58.4 °F 30.10 in WSW 1.0 mph 1.0 mph 69% 0.00 in 185 W/m2
15:28 69.0 °F 58.4 °F 30.10 in WSW 1.0 mph 1.0 mph 69% 0.00 in 176 W/m2
15:34 69.3 °F 59.1 °F 30.10 in Calm   1.0 mph 70% 0.00 in 504 W/m2
15:40 69.9 °F 58.0 °F 30.10 in Calm   3.0 mph 66% 0.00 in 499 W/m2
15:46 69.8 °F 58.8 °F 30.10 in ENE 2.0 mph 3.0 mph 68% 0.00 in 473 W/m2
15:52 70.1 °F 59.5 °F 30.10 in ENE 2.0 mph 2.0 mph 69% 0.00 in 459 W/m2
15:58 70.1 °F 59.0 °F 30.10 in ENE 1.0 mph 3.0 mph 68% 0.00 in 292 W/m2
16:04 68.7 °F 58.5 °F 30.10 in ENE 2.0 mph 3.0 mph 70% 0.00 in 234 W/m2
16:10 68.8 °F 59.0 °F 30.10 in NNW 3.0 mph 3.0 mph 71% 0.00 in 221 W/m2
16:16 68.8 °F 59.0 °F 30.10 in NNE 2.0 mph 3.0 mph 71% 0.00 in 100 W/m2
16:22 68.2 °F 58.8 °F 30.10 in NNE 1.0 mph 3.0 mph 72% 0.00 in 185 W/m2
16:28 68.6 °F 58.8 °F 30.10 in NNE 2.0 mph 3.0 mph 71% 0.00 in 262 W/m2
16:34 68.6 °F 58.8 °F 30.10 in ENE 2.0 mph 2.0 mph 71% 0.00 in 243 W/m2
16:40 68.3 °F 58.5 °F 30.10 in SE 3.0 mph 3.0 mph 71% 0.00 in 262 W/m2
16:46 68.4 °F 59.0 °F 30.10 in NE 2.0 mph 4.0 mph 72% 0.00 in 239 W/m2
16:52 68.0 °F 58.6 °F 30.10 in ENE 2.0 mph 2.0 mph 72% 0.00 in 51 W/m2
16:58 67.6 °F 58.6 °F 30.09 in ENE 1.0 mph 2.0 mph 73% 0.00 in 79 W/m2
17:04 67.4 °F 58.4 °F 30.09 in ENE 1.0 mph 3.0 mph 73% 0.00 in 216 W/m2
17:10 67.4 °F 58.8 °F 30.09 in ENE 2.0 mph 3.0 mph 74% 0.00 in 60 W/m2
17:16 67.4 °F 58.8 °F 30.09 in ENE 2.0 mph 3.0 mph 74% 0.00 in 44 W/m2
17:22 67.4 °F 58.4 °F 30.10 in ENE 1.0 mph 1.0 mph 73% 0.00 in 42 W/m2
17:28 67.3 °F 58.3 °F 30.10 in ENE 2.0 mph 2.0 mph 73% 0.00 in 37 W/m2
17:34 67.1 °F 58.5 °F 30.10 in ENE 1.0 mph 1.0 mph 74% 0.00 in 35 W/m2
17:40 66.9 °F 58.7 °F 30.10 in Calm     75% 0.00 in 35 W/m2
17:46 66.8 °F 58.6 °F 30.10 in Calm   2.0 mph 75% 0.00 in 26 W/m2
17:52 66.5 °F 59.1 °F 30.11 in Calm     77% 0.00 in 23 W/m2
17:58 66.2 °F 59.1 °F 30.12 in Calm     78% 0.00 in 12 W/m2
18:04 65.9 °F 59.2 °F 30.11 in Calm     79% 0.00 in 7 W/m2
18:10 65.5 °F 59.2 °F 30.12 in Calm     80% 0.00 in 0 W/m2
18:16 65.2 °F 59.2 °F 30.12 in Calm     81% 0.00 in 0 W/m2
18:22 64.9 °F 59.3 °F 30.11 in Calm   3.0 mph 82% 0.00 in 0 W/m2
18:28 64.6 °F 58.6 °F 30.12 in Calm   3.0 mph 81% 0.00 in 0 W/m2
18:34 64.6 °F 59.0 °F 30.12 in Calm   1.0 mph 82% 0.00 in 0 W/m2
18:40 64.5 °F 58.5 °F 30.12 in NE 1.0 mph 3.0 mph 81% 0.00 in 0 W/m2
18:46 64.4 °F 58.1 °F 30.11 in NE 1.0 mph 3.0 mph 80% 0.00 in 0 W/m2
18:52 64.3 °F 58.0 °F 30.11 in NE 1.0 mph 3.0 mph 80% 0.00 in 0 W/m2
18:58 64.1 °F 58.1 °F 30.11 in NE 1.0 mph 3.0 mph 81% 0.00 in 0 W/m2
19:04 64.0 °F 58.1 °F 30.10 in NE 1.0 mph 1.0 mph 81% 0.00 in 0 W/m2
19:10 63.8 °F 57.9 °F 30.10 in ENE 1.0 mph 1.0 mph 81% 0.00 in 0 W/m2
19:16 63.5 °F 57.9 °F 30.10 in Calm   1.0 mph 82% 0.00 in 0 W/m2
19:22 63.4 °F 57.8 °F 30.10 in Calm   1.0 mph 82% 0.00 in 0 W/m2
19:28 63.2 °F 57.9 °F 30.10 in ENE 1.0 mph 2.0 mph 83% 0.00 in 0 W/m2
19:34 63.0 °F 57.8 °F 30.10 in Calm   1.0 mph 83% 0.00 in 0 W/m2
19:40 62.7 °F 57.8 °F 30.10 in Calm     84% 0.00 in 0 W/m2
19:46 62.3 °F 57.7 °F 30.10 in Calm     85% 0.00 in 0 W/m2
19:52 62.1 °F 57.5 °F 30.10 in Calm     85% 0.00 in 0 W/m2
19:58 61.7 °F 57.1 °F 30.10 in Calm     85% 0.00 in 0 W/m2
20:04 61.4 °F 57.2 °F 30.10 in Calm     86% 0.00 in 0 W/m2
20:10 61.2 °F 57.0 °F 30.10 in Calm     86% 0.00 in 0 W/m2
20:16 61.1 °F 57.2 °F 30.10 in Calm     87% 0.00 in 0 W/m2
20:22 61.1 °F 57.5 °F 30.10 in Calm     88% 0.00 in 0 W/m2
20:28 61.1 °F 57.5 °F 30.10 in Calm     88% 0.00 in 0 W/m2
20:34 61.0 °F 57.4 °F 30.10 in Calm     88% 0.00 in 0 W/m2
20:40 61.0 °F 57.7 °F 30.10 in Calm     89% 0.00 in 0 W/m2
20:46 61.0 °F 57.7 °F 30.09 in Calm     89% 0.00 in 0 W/m2
20:52 60.9 °F 57.6 °F 30.09 in Calm     89% 0.00 in 0 W/m2
20:58 60.7 °F 57.4 °F 30.09 in Calm     89% 0.00 in 0 W/m2
21:06 60.5 °F 56.9 °F 30.09 in Calm     88% 0.00 in 0 W/m2
21:12 60.4 °F 57.1 °F 30.08 in Calm     89% 0.00 in 0 W/m2
21:18 60.2 °F 56.9 °F 30.08 in Calm     89% 0.00 in 0 W/m2
21:24 60.1 °F 56.8 °F 30.08 in Calm     89% 0.00 in 0 W/m2
21:30 59.9 °F 56.6 °F 30.08 in Calm     89% 0.00 in 0 W/m2
21:36 59.5 °F 56.3 °F 30.08 in Calm     89% 0.00 in 0 W/m2
21:42 59.2 °F 56.0 °F 30.08 in Calm     89% 0.00 in 0 W/m2
21:48 58.9 °F 56.0 °F 30.08 in Calm     90% 0.00 in 0 W/m2
21:54 58.8 °F 55.9 °F 30.08 in Calm     90% 0.00 in 0 W/m2
22:00 58.6 °F 55.7 °F 30.08 in Calm     90% 0.00 in 0 W/m2
22:06 58.4 °F 55.8 °F 30.08 in Calm     91% 0.00 in 0 W/m2
22:12 58.1 °F 55.5 °F 30.07 in Calm     91% 0.00 in 0 W/m2
22:18 58.1 °F 55.5 °F 30.07 in Calm     91% 0.00 in 0 W/m2
22:24 58.2 °F 55.6 °F 30.07 in Calm     91% 0.00 in 0 W/m2
22:30 58.5 °F 56.2 °F 30.07 in Calm     92% 0.00 in 0 W/m2
22:36 58.6 °F 56.3 °F 30.07 in Calm     92% 0.00 in 0 W/m2
22:42 58.6 °F 56.3 °F 30.07 in Calm     92% 0.00 in 0 W/m2
22:48 58.4 °F 56.1 °F 30.06 in Calm   1.0 mph 92% 0.00 in 0 W/m2
22:54 58.4 °F 56.1 °F 30.06 in Calm     92% 0.00 in 0 W/m2
23:00 58.3 °F 56.0 °F 30.06 in Calm     92% 0.00 in 0 W/m2
23:06 57.8 °F 55.5 °F 30.06 in Calm     92% 0.00 in 0 W/m2
23:12 57.8 °F 55.5 °F 30.06 in Calm     92% 0.00 in 0 W/m2
23:18 57.7 °F 55.4 °F 30.05 in Calm     92% 0.00 in 0 W/m2
23:24 57.6 °F 55.3 °F 30.05 in ENE 1.0 mph 1.0 mph 92% 0.00 in 0 W/m2
23:30 57.5 °F 55.2 °F 30.04 in ENE 1.0 mph 1.0 mph 92% 0.00 in 0 W/m2
23:36 57.3 °F 55.0 °F 30.04 in Calm   1.0 mph 92% 0.00 in 0 W/m2
23:42 57.3 °F 55.0 °F 30.04 in Calm     92% 0.00 in 0 W/m2
23:48 57.4 °F 55.1 °F 30.04 in ENE 1.0 mph 1.0 mph 92% 0.00 in 0 W/m2
23:54 57.5 °F 55.5 °F 30.04 in ENE 1.0 mph 1.0 mph 93% 0.00 in 0 W/m2
Country Meadow, Clay, NY, USA
Compliments of Weather Underground - 2 mb